Weather History for MMMM - October, 2012

Change the Weather History Date:

Tuesday, October 9, 2012

  Actual Average Record
Temperature  
Mean Temperature 64 °F -  
Max Temperature 79 °F 76 °F 82 °F (2006)
Min Temperature 50 °F 50 °F 44 °F (2010)
Growing Degree Days 14 (Base 50)    
Moisture  
Dew Point 55 °F    
Average Humidity 72    
Maximum Humidity 100    
Minimum Humidity 38    
Precipitation  
Precipitation 0.00 in 0.05 in - ()
Sea Level Pressure  
Sea Level Pressure 30.06 in    
Wind  
Wind Speed 2 mph ()    
Max Wind Speed 8 mph    
Max Gust Speed -    
Visibility 7.3 miles    
Events Rain    
Averages and records for this station are not official NWS values.
T = Trace of Precipitation, MM = Missing Value Source: Averaged Metar Reports

Daily Weather History Graph

Daily Weather History Graph

Search for Another Location

Airport or City:

Trip Planner

Search our weather history database for the weather conditions in past years. The results will help you decide how hot, cold, wet, or windy it might be!

Date:

Astronomy

Oct. 09, 2012 Rise Set
Actual Time 7:37 AM CDT 7:24 PM CDT
Civil Twilight 7:15 AM CDT 7:47 PM CDT
Nautical Twilight 6:49 AM CDT 8:12 PM CDT
Astronomical Twilight 6:23 AM CDT 8:38 PM CDT
Moon 2:01 AM CDT (10/9) 3:11 PM CDT (10/9)
Length of Visible Light 12h 31m
Length of Day
11h 47m
Last Quarter, 36% of the Moon is Illuminated
Oct 9
Last Quarter
Oct 15
New
Oct 21
First Quarter
Oct 29
Full
Nov 6
Last Quarter

Hourly Weather History & Observations

Time (CDT) Temp. Dew Point Humidity Pressure Visibility Wind Dir Wind Speed Gust Speed Precip Events Conditions
12:47 AM 59.0 °F 53.6 °F 82% 29.84 in 8.0 mi Calm Calm - N/A   Clear
12:50 AM 63 °F 55 °F 69% 29.83 in 5 mi North 4.5 mph - -   Partly Cloudy
1:43 AM 59.0 °F 53.6 °F 82% 30.26 in 8.0 mi Calm Calm - N/A   Clear
2:43 AM 57.2 °F 53.6 °F 88% 30.25 in 8.0 mi Calm Calm - N/A   Clear
3:53 AM 53.6 °F 51.8 °F 94% 29.83 in 8.0 mi Calm Calm - N/A   Clear
4:43 AM 51.8 °F 51.8 °F 100% 30.24 in 8.0 mi Calm Calm - N/A   Clear
5:45 AM 50.0 °F 50.0 °F 100% 30.25 in 8.0 mi Calm Calm - N/A   Clear
6:54 AM 50.0 °F 50.0 °F 100% 29.90 in 7.0 mi Calm Calm - N/A   Scattered Clouds
6:55 AM 63 °F 57 °F 75% 29.99 in 7 mi North 4.5 mph - -   Partly Cloudy
7:46 AM 50.0 °F 50.0 °F 100% 30.27 in 7.0 mi Calm Calm - N/A   Mostly Cloudy
8:45 AM 57.2 °F 55.4 °F 94% 30.29 in 7.0 mi Calm Calm - N/A   Scattered Clouds
9:14 AM 60.8 °F 55.4 °F 82% 30.30 in 7.0 mi Calm Calm - N/A   Scattered Clouds
9:40 AM 64.4 °F 53.6 °F 68% 29.89 in 7.0 mi Calm Calm - N/A   Clear
10:46 AM 68.0 °F 55.4 °F 64% 30.31 in 8.0 mi Calm Calm - N/A   Clear
11:45 AM 71.6 °F 55.4 °F 57% 30.30 in 8.0 mi North 6.9 mph - N/A   Clear
12:49 PM 75.2 °F 55.4 °F 50% 29.85 in 8.0 mi Calm Calm - N/A   Partly Cloudy
12:55 PM 77 °F 56 °F 38% 29.93 in 9 mi ENE 6.7 mph - -   Partly Cloudy
1:40 PM 75.2 °F 55.4 °F 50% 30.23 in 8.0 mi Calm Calm - N/A   Scattered Clouds
2:40 PM 78.8 °F 53.6 °F 42% 30.19 in 8.0 mi WSW 4.6 mph - N/A   Scattered Clouds
3:47 PM 78.8 °F 55.4 °F 44% 29.77 in 8.0 mi SSW 8.1 mph - N/A   Scattered Clouds
3:50 PM 76 °F 57 °F 42% 29.80 in 7 mi SSE 4.5 mph - - Rain Light Drizzle
4:55 PM 77.0 °F 57.2 °F 50% 30.15 in 7.0 mi South 6.9 mph - N/A   Mostly Cloudy
5:41 PM 73.4 °F 55.4 °F 53% 30.14 in 7.0 mi SSW 5.8 mph - N/A   Mostly Cloudy
6:44 PM 69.8 °F 57.2 °F 64% 29.81 in 7.0 mi SSW 6.9 mph - N/A   Scattered Clouds
6:50 PM 71 °F 58 °F 54% 29.74 in 7 mi South 4.5 mph - -   Partly Cloudy
7:40 PM 66.2 °F 57.2 °F 73% 30.18 in 7.0 mi SSE 6.9 mph - N/A   Scattered Clouds
8:44 PM 64.4 °F 59.0 °F 83% 30.20 in 7.0 mi SSW 5.8 mph - N/A   Mostly Cloudy
9:41 PM 62.6 °F 59.0 °F 88% 29.82 in 7.0 mi Variable 2.3 mph - N/A   Scattered Clouds
9:50 PM 66 °F 60 °F 75% 29.78 in 5 mi SW 2.2 mph - -   Partly Cloudy
10:41 PM 60.8 °F 57.2 °F 88% 30.25 in 7.0 mi Calm Calm - N/A   Scattered Clouds
11:50 PM 59.0 °F 57.2 °F 94% 30.26 in 7.0 mi Calm Calm - N/A   Scattered Clouds